Flag for Guinea Weather past 2 weeks in Conakry, Guinea

Now
82 °F

Passing clouds.


Feels Like: 87 °F
Forecast: 78 / 83 °F
Wind: 5 mph from Northwest

Location: Conakry / Gbessia


UV Index: 10 (Very high)

Visibility: N/A


Pressure: 29.83 "Hg

Humidity: 70%

Dew point: 72 °F

Location of ConakryLocation

Historic Weather in Conakry

°F

Conakry temperature yesterday

Maximum temperature yesterday: 88 °F (at 12:00 PM)
Minimum temperature yesterday: 72 °F (at 4:04 AM)
Average temperature yesterday: 81 °F

Past Weeks' High & Low Weather Summary

 TemperatureHumidityPressure
High93 °F (Apr 10, 2:00 PM)100% (Apr 24, 4:04 AM)30.09 "Hg (Apr 24, 4:04 AM)
Low72 °F (Apr 24, 4:04 AM)20% (Apr 15, 1:00 PM)29.74 "Hg (Apr 17, 5:00 PM)
Average82 °F72%29.85 "Hg
* Reported Apr 10 8:00 AM — Apr 25 8:00 AM, Conakry, Weather by CustomWeather, © 2014

Note: Actual official high and low records may vary slightly from our data, if they occured in-between our weather recording intervals... More about our weather records

Advertising

Historic Weather Conditions — Data for Previous 24 hours

 ConditionsComfort  
Time TempWeatherWind HumidityBarometerVisibility
8:00 AM
Apr 25
81 °FScattered clouds.7 mph70%29.83 "HgN/A
6:00 AM79 °FPassing clouds.9 mph84%29.83 "HgN/A
5:00 AM79 °FPassing clouds.7 mph84%29.80 "HgN/A
4:00 AM79 °FPassing clouds.9 mph84%29.80 "HgN/A
3:00 AM79 °FPassing clouds.7 mph89%29.83 "HgN/A
2:00 AM79 °FPassing clouds.9 mph94%29.83 "HgN/A
1:00 AM81 °FPassing clouds.16 mph89%29.89 "HgN/A
12:00 AM79 °FPassing clouds.16 mph94%29.89 "HgN/A
11:00 PM
Apr 24
81 °FPassing clouds.16 mph89%29.89 "HgN/A
10:00 PM81 °FClear.16 mph89%29.86 "Hg10 mi
9:00 PM81 °FClear.9 mph89%29.83 "Hg10 mi
8:00 PM81 °FClear.9 mph84%29.83 "Hg10 mi
7:00 PM82 °FScattered clouds.9 mph79%29.80 "HgN/A
6:00 PM82 °FPassing clouds.16 mph79%29.77 "HgN/A
5:00 PM86 °FScattered clouds.14 mph70%29.77 "HgN/A
4:00 PM88 °FScattered clouds.18 mph62%29.77 "HgN/A
3:00 PM88 °FPartly sunny.14 mph62%29.80 "HgN/A
2:00 PM88 °FScattered clouds.12 mph55%29.86 "HgN/A
1:00 PM88 °FScattered clouds.9 mph52%29.86 "HgN/A
12:00 PM88 °FPartly sunny.9 mph52%29.86 "HgN/A
11:00 AM82 °FPartly sunny.7 mph70%29.86 "HgN/A
10:00 AM81 °FPartly sunny.7 mph70%29.86 "HgN/A
9:00 AM81 °FPartly sunny.7 mph79%29.86 "HgN/A
Weather by CustomWeather, © 2014

See weather overview